Regional Weather Roundup
Issued by NWS

Home | Current Version | Previous Version | Text Only | Print | Product List | Glossary Off
Versions: 1 2 3 4 5 6 7 8 9 10 11 12 13 14 15 16 17 18 19 20 21 22 23 24 25 26 27 28 29 30 31 32 33 34 35 36 37 38 39 40 41 42 43 44 45 46 47 48 49 50

462
ASUS43 KBIS 191210
RWRND

NORTH DAKOTA REGIONAL WEATHER ROUNDUP
NATIONAL WEATHER SERVICE BISMARCK ND
700 AM CDT TUE SEP 19 2017

NOTE: "FAIR" INDICATES FEW OR NO CLOUDS BELOW 12,000 FEET WITH NO
SIGNIFICANT WEATHER AND/OR OBSTRUCTIONS TO VISIBILITY.


NDZ001>003-009>011-017-191300-
NORTHWEST NORTH DAKOTA

CITY           SKY/WX    TMP DP  RH WIND       PRES   REMARKS
WILLISTON      CLOUDY    60  48  64 E3        29.43F
6HR MIN TEMP:  60; 6HR MAX TEMP:  63;

MINOT          LGT RAIN  55  50  83 E15       29.53F
MINOT AFB      CLOUDY    53  50  88 E21G26    29.50F
$$

NDZ018>021-031>035-040>046-191300-
SOUTHWEST NORTH DAKOTA

CITY           SKY/WX    TMP DP  RH WIND       PRES   REMARKS
BISMARCK       PTCLDY    62  59  90 E14       29.55F
6HR MIN TEMP:  51; 6HR MAX TEMP:  62;

DICKINSON      PTCLDY    58  51  78 SE9       29.44F
GARRISON         N/A     61  56  83 E24G35    29.48F
6HR MIN TEMP:  51; 6HR MAX TEMP:  62;

HETTINGER ARPT CLOUDY    63  46  54 SW13      29.50R
$$

NDZ004>008-012>016-024-026-027-054-191300-
NORTHEAST NORTH DAKOTA

CITY           SKY/WX    TMP DP  RH WIND       PRES   REMARKS
GRAND FORKS    CLOUDY    59  59 100 SE12      29.77F FOG
GRND FRKS AFB  CLOUDY    59  59 100 SE10      29.77F FOG
DEVILS LAKE    CLOUDY    58  58 100 E16       29.69F FOG
$$

NDZ022-023-025-028>030-036>039-047>053-191300-
SOUTHEAST NORTH DAKOTA

CITY           SKY/WX    TMP DP  RH WIND       PRES   REMARKS
FARGO          CLOUDY    61  61 100 SE12      29.76F FOG
6HR MIN TEMP:  60; 6HR MAX TEMP:  61;

JAMESTOWN      CLOUDY    62  61  96 SE15G26   29.68F FOG
$$





USA.gov is the U.S. government's official web portal to all federal, state and local government web resources and services.